SBONWEB Weather Reports


Display with metric or nautical units.
time (UTC)temp
F
wind
direction
speed
MPH
gust
MPH
rain 1hr
in
rain 24hr
in
rain mn
in
humidity
%
barometer
mb
20260901140903 82 74 4.0 7.0 0.00 0.00 0.00 57 1018.5
20260901140003 82 96 4.0 11.0 0.00 0.00 0.00 57 1018.4
20260901135403 82 84 3.0 11.0 0.00 0.00 0.00 58 1018.4
20260901134503 82 96 5.0 9.0 0.00 0.00 0.00 57 1018.5
20260901133603 81 92 4.0 10.0 0.00 0.00 0.00 58 1018.7
20260901132918 81 95 5.0 8.0 0.00 0.00 0.00 58 1018.7
20260901131803 81 110 3.0 11.0 0.00 0.00 0.00 57 1018.8
20260901130903 81 72 5.0 10.0 0.00 0.00 0.00 58 1019.1
20260901130218 81 87 5.0 10.0 0.00 0.00 0.00 58 1019.1
20260901125403 81 95 5.0 9.0 0.00 0.00 0.00 59 1019.3
20260901124503 80 99 6.0 11.0 0.00 0.00 0.00 61 1019.4
20260901123603 80 93 6.0 11.0 0.00 0.00 0.00 61 1019.5
20260901122704 80 84 5.0 11.0 0.00 0.00 0.00 62 1019.6
20260901121803 80 114 3.0 10.0 0.00 0.00 0.00 63 1019.6
20260901120903 80 84 4.0 9.0 0.00 0.00 0.00 62 1019.7
20260901120004 80 67 4.0 9.0 0.00 0.00 0.00 61 1019.7
20260901115403 80 86 5.0 7.0 0.00 0.00 0.00 62 1019.7
20260901114503 79 103 5.0 11.0 0.00 0.00 0.00 63 1019.8
20260901113603 80 84 4.0 10.0 0.00 0.00 0.00 61 1019.8
20260901112703 80 94 4.0 9.0 0.00 0.00 0.00 61 1019.8
20260901111804 80 99 5.0 9.0 0.00 0.00 0.00 61 1019.8
20260901110903 79 95 5.0 11.0 0.00 0.00 0.00 62 1019.9
20260901110003 79 91 4.0 12.0 0.00 0.00 0.00 63 1020.0
20260901105403 79 80 3.0 15.0 0.00 0.00 0.00 64 1019.8
20260901104504 78 303 3.0 13.0 0.00 0.00 0.00 68 1019.9
20260901103817 79 64 3.0 8.0 0.00 0.00 0.00 68 1020.0
20260901102703 79 69 4.0 10.0 0.00 0.00 0.00 70 1019.8
20260901101804 77 98 3.0 10.0 0.00 0.00 0.00 71 1019.9
20260901100903 76 102 3.0 8.0 0.00 0.00 0.00 73 1020.0
20260901100004 76 81 2.0 6.0 0.00 0.00 0.00 74 1020.1
20260901095403 76 48 2.0 7.0 0.00 0.00 0.00 73 1020.1
20260901094503 76 87 2.0 6.0 0.00 0.00 0.00 74 1020.1
20260901093603 76 78 3.0 6.0 0.00 0.00 0.00 74 1020.2
20260901092703 76 70 4.0 8.0 0.00 0.00 0.00 74 1020.1
20260901091803 76 61 4.0 10.0 0.00 0.00 0.00 74 1020.1
20260901090904 76 60 4.0 10.0 0.00 0.00 0.00 73 1020.0
20260901090003 76 40 4.0 9.0 0.00 0.00 0.00 73 1020.0
20260901085403 76 62 5.0 9.0 0.00 0.00 0.00 74 1019.9
20260901084503 75 80 4.0 9.0 0.00 0.00 0.00 74 1019.8
20260901083604 75 39 4.0 11.0 0.00 0.00 0.00 73 1019.8
20260901082918 75 45 4.0 11.0 0.00 0.00 0.00 72 1019.7
20260901081803 75 6 4.0 10.0 0.00 0.00 0.00 66 1019.7
20260901080903 75 3 4.0 7.0 0.00 0.00 0.00 67 1019.6
20260901080004 74 360 4.0 6.0 0.00 0.00 0.00 68 1019.5
20260901075618 74 11 4.0 7.0 0.00 0.00 0.00 67 1019.6
20260901074717 74 27 4.0 8.0 0.00 0.00 0.00 67 1019.4
20260901073603 74 41 3.0 7.0 0.00 0.00 0.00 69 1019.4
20260901072703 73 41 3.0 8.0 0.00 0.00 0.00 69 1019.3
20260901071804 73 40 3.0 7.0 0.00 0.00 0.00 69 1019.4
20260901070903 73 41 5.0 10.0 0.00 0.00 0.00 67 1019.4
20260901070003 73 51 5.0 11.0 0.00 0.00 0.00 64 1019.3
20260901065404 74 48 4.0 10.0 0.00 0.00 0.00 63 1019.2
20260901064503 74 48 3.0 10.0 0.00 0.00 0.00 61 1019.2
20260901063603 73 23 3.0 8.0 0.00 0.00 0.00 57 1019.1
20260901062703 72 36 3.0 6.0 0.00 0.00 0.00 54 1019.1
20260901061803 72 14 3.0 4.0 0.00 0.00 0.00 54 1018.9
20260901060903 72 13 4.0 5.0 0.00 0.00 0.00 54 1018.8
20260901060217 71 11 5.0 7.0 0.00 0.00 0.00 54 1018.7
20260901055617 71 353 5.0 10.0 0.00 0.00 0.00 54 1018.5
20260901054503 70 355 4.0 9.0 0.00 0.00 0.00 54 1018.4
20260901053603 70 15 5.0 8.0 0.00 0.00 0.00 53 1018.4
20260901052703 70 14 6.0 9.0 0.00 0.00 0.00 53 1018.3
20260901051803 70 11 5.0 9.0 0.00 0.00 0.00 53 1018.1
20260901050903 70 3 4.0 8.0 0.00 0.00 0.00 53 1018.0
20260901050008 69 3 5.0 8.0 0.00 0.00 0.00 54 1017.9
20260901045403 70 10 4.0 8.0 0.00 0.00 0.00 54 1017.7
20260901044718 70 19 4.0 8.0 0.00 0.00 0.00 53 1017.7
20260901043603 70 15 5.0 8.0 0.00 0.00 0.00 53 1017.4
20260901042703 70 9 4.0 8.0 0.00 0.00 0.00 53 1017.4
20260901041804 70 11 4.0 8.0 0.00 0.00 0.00 53 1017.3
20260901040903 70 344 3.0 7.0 0.00 0.00 0.00 53 1017.1
20260901040004 70 12 3.0 5.0 0.00 0.00 0.00 53 1017.0
20260901035403 70 19 4.0 6.0 0.00 0.00 0.00 53 1016.9
20260901034503 70 325 4.0 9.0 0.00 0.00 0.00 53 1016.8
20260901033603 71 348 5.0 10.0 0.00 0.00 0.00 53 1016.7
20260901032918 71 352 6.0 10.0 0.00 0.00 0.00 53 1016.7
20260901031804 71 290 5.0 12.0 0.00 0.00 0.00 53 1016.4
20260901030903 71 287 5.0 10.0 0.00 0.00 0.00 53 1016.5
20260901030003 71 273 4.0 10.0 0.00 0.00 0.00 53 1016.5
20260901025403 71 275 5.0 10.0 0.00 0.00 0.00 53 1016.5
20260901024503 71 281 4.0 10.0 0.00 0.00 0.00 54 1016.6
20260901023604 70 321 4.0 8.0 0.00 0.00 0.00 55 1016.6
20260901022703 69 12 1.0 5.0 0.00 0.00 0.00 58 1016.7
20260901021803 68 16 1.0 3.0 0.00 0.00 0.00 62 1016.7
20260901021119 68 46 0.0 3.0 0.00 0.00 0.00 64 1016.7
20260901015403 69 0 1.0 0.0 0.00 0.00 0.00 59 1016.6
20260901014503 70 111 1.0 3.0 0.00 0.00 0.00 58 1016.8
20260901013603 71 168 0.0 3.0 0.00 0.00 0.00 56 1016.7
20260901012917 73 274 1.0 2.0 0.00 0.00 0.00 52 1016.7
20260901011804 73 323 3.0 8.0 0.00 0.00 0.00 50 1016.6
20260901010903 74 328 4.0 8.0 0.00 0.00 0.00 50 1016.6
20260901010003 74 316 5.0 8.0 0.00 0.00 0.00 51 1016.5
20260901005404 74 311 5.0 8.0 0.00 0.00 0.00 53 1016.5
20260901004503 73 299 6.0 10.0 0.00 0.00 0.00 54 1016.5
20260901003603 73 317 7.0 13.0 0.00 0.00 0.00 56 1016.5
20260901002703 73 309 6.0 11.0 0.00 0.00 0.00 59 1016.4
20260901001804 73 328 7.0 12.0 0.00 0.00 0.00 61 1016.5
20260901000903 74 325 8.0 14.0 0.00 0.00 0.00 62 1016.5
20260901000003 74 329 7.0 14.0 0.00 0.00 0.00 60 1016.4
20260831235403 74 296 6.0 13.0 0.00 0.00 0.00 63 1016.5
20260831234503 73 297 5.0 11.0 0.00 0.00 0.00 68 1016.5
20260831233604 73 312 4.0 9.0 0.00 0.00 0.00 69 1016.5
20260831232703 73 319 3.0 10.0 0.00 0.00 0.00 69 1016.5
20260831231804 73 261 2.0 7.0 0.00 0.00 0.00 71 1016.5
20260831230903 73 265 1.0 6.0 0.00 0.00 0.00 71 1016.5
20260831230216 73 232 1.0 3.0 0.00 0.00 0.00 71 1016.4
20260831225403 73 229 2.0 4.0 0.00 0.00 0.00 72 1016.3
20260831224503 73 217 2.0 4.0 0.00 0.00 0.00 72 1016.4
20260831223817 73 251 3.0 8.0 0.00 0.00 0.00 72 1016.3
20260831222703 72 279 3.0 8.0 0.00 0.00 0.00 75 1016.1
20260831221804 72 240 1.0 7.0 0.00 0.00 0.00 76 1016.1
20260831220903 73 0 0.0 0.0 0.00 0.00 0.00 76 1016.2
20260831220218 73 0 0.0 0.0 0.00 0.00 0.00 74 1016.2
20260831215618 74 0 0.0 0.0 0.00 0.00 0.00 73 1016.2
20260831214717 74 0 0.0 0.0 0.00 0.00 0.00 72 1016.1
20260831213603 75 0 0.0 0.0 0.00 0.00 0.00 70 1016.1
20260831212704 75 232 2.0 3.0 0.00 0.00 0.00 70 1015.9
20260831211803 75 228 3.0 5.0 0.00 0.00 0.00 71 1015.9
20260831210903 75 223 2.0 5.0 0.00 0.00 0.00 71 1015.8
20260831210003 75 231 2.0 4.0 0.00 0.00 0.00 71 1015.8
20260831205403 75 234 2.0 4.0 0.00 0.00 0.00 71 1015.8
20260831204503 75 229 3.0 7.0 0.00 0.00 0.00 72 1015.7
20260831203603 76 227 3.0 7.0 0.00 0.00 0.00 71 1015.7
20260831202703 76 224 3.0 5.0 0.00 0.00 0.00 71 1015.5
20260831201804 75 219 1.0 5.0 0.00 0.00 0.00 70 1015.5
20260831200903 75 243 0.0 1.0 0.00 0.00 0.00 70 1015.5
20260831200003 75 233 2.0 3.0 0.00 0.00 0.00 71 1015.4
20260831195617 75 226 2.0 4.0 0.00 0.00 0.00 71 1015.3
20260831194503 74 219 2.0 4.0 0.00 0.00 0.00 72 1015.2
20260831193603 74 215 1.0 3.0 0.00 0.00 0.00 73 1015.2
20260831192703 74 254 1.0 2.0 0.00 0.00 0.00 72 1015.2
20260831191804 74 275 1.0 3.0 0.00 0.00 0.00 72 1015.2
20260831190903 74 211 1.0 2.0 0.00 0.00 0.00 73 1015.2
20260831190003 74 203 1.0 3.0 0.00 0.00 0.00 72 1015.1
20260831185403 74 203 1.0 2.0 0.00 0.00 0.00 73 1015.1
20260831184503 75 203 1.0 2.0 0.00 0.00 0.00 72 1014.8
20260831183603 75 202 0.0 2.0 0.00 0.00 0.00 71 1014.7
20260831182703 76 202 1.0 2.0 0.00 0.00 0.00 69 1014.6
20260831181804 77 203 1.0 2.0 0.00 0.00 0.00 68 1014.5
20260831180903 78 225 1.0 2.0 0.00 0.00 0.00 66 1014.4
20260831180003 79 222 1.0 2.0 0.00 0.00 0.00 65 1014.5
20260831175403 80 224 1.0 3.0 0.00 0.00 0.00 63 1014.5
20260831174503 81 228 1.0 2.0 0.00 0.00 0.00 61 1014.5
20260831173604 82 227 1.0 2.0 0.00 0.00 0.00 60 1014.5
20260831172703 83 211 1.0 3.0 0.00 0.00 0.00 58 1014.5
20260831171803 84 202 0.0 2.0 0.00 0.00 0.00 62 1014.4
20260831170904 85 202 0.0 1.0 0.00 0.00 0.00 60 1014.4
20260831170003 85 202 0.0 2.0 0.00 0.00 0.00 54 1014.3
20260831165403 85 208 0.0 2.0 0.00 0.00 0.00 54 1014.4
20260831164508 85 220 1.0 3.0 0.00 0.00 0.00 52 1014.5
20260831163603 85 205 1.0 3.0 0.00 0.00 0.00 53 1014.4
20260831162703 85 176 1.0 3.0 0.00 0.00 0.00 52 1014.4
20260831161804 86 156 2.0 5.0 0.00 0.00 0.00 52 1014.5
20260831160903 86 160 2.0 5.0 0.00 0.00 0.00 52 1014.5
20260831160003 86 160 1.0 3.0 0.00 0.00 0.00 51 1014.5
20260831155404 86 158 2.0 3.0 0.00 0.00 0.00 51 1014.6
20260831154503 86 184 2.0 5.0 0.00 0.00 0.00 52 1014.7
20260831153603 86 208 2.0 5.0 0.00 0.00 0.00 52 1014.7
20260831152703 86 170 2.0 4.0 0.00 0.00 0.00 51 1014.7
20260831151803 86 165 2.0 6.0 0.00 0.00 0.00 51 1014.8
20260831151118 86 158 2.0 5.0 0.00 0.00 0.00 54 1014.8
20260831150003 86 163 2.0 6.0 0.00 0.00 0.00 52 1015.0
20260831145617 87 156 2.0 6.0 0.00 0.00 0.00 53 1014.9
20260831144716 86 163 2.0 5.0 0.00 0.00 0.00 52 1014.8
20260831143604 86 138 2.0 5.0 0.00 0.00 0.00 54 1014.8
20260831142704 86 148 3.0 6.0 0.00 0.00 0.00 52 1015.0
20260831141803 86 171 3.0 8.0 0.00 0.00 0.00 51 1014.8
20260831141118 86 166 3.0 8.0 0.00 0.00 0.00 52 1014.8